Location: Bagnara
(41.0500°N, 14.7833°E)
Time: 08:42:31
(UTC+00:00)

ATLAS 5 CENTAUR R/B - Pass Details

Date: 20 June 2021
Orbit: 510 x 1148 km, 63.4° (Epoch: 28 July)

Event Time Altitude Azimuth Distance (km) Brightness Sun altitude
Exits shadow 00:47:52 71° 199° (SSW) 574 1.1 -21.0°
Maximum altitude 00:48:16 85° 125° (SE) 551 1.2 -21.0°
Drops below altitude 10° 00:52:32 10° 36° (NE) 1,932 5.3 -20.6°
Sets 00:54:57 0° 36° (NE) 2,924 6.6 -20.4°
